Home   Weather   Ann Arbor   Past weeks

Flag for USA Past Weather in Ann Arbor, Michigan, USA — Yesterday and Last 2 Weeks

Now
47 °F

Sunny.


Feels Like: 46 °F
Forecast: 35 / 67 °F
Wind: 3 mph from Southwest

Location: Ann Arbor Municipal Airport

Current Time: Apr 23, 2017 at 9:54:16 am

Latest Report: Apr 23, 2017 at 8:53 am


Visibility: 10 mi

Pressure: 30.15 "Hg

Humidity: 74%

Dew Point: 39 °F

Location of Ann ArborLocation

Past Weather in Ann Arbor — Graph

°F

Ann Arbor Temperature Yesterday

Maximum temperature yesterday: 61 °F (at 5:53 pm)
Minimum temperature yesterday: 39 °F (at 4:53 am)
Average temperature yesterday: 49 °F

High & Low Weather Summary for the Past Weeks

 TemperatureHumidityPressure
High80 °F (Apr 15, 1:53 pm)100% (Apr 11, 7:43 am)30.48 "Hg (Apr 11, 7:43 am)
Low28 °F (Apr 8, 7:53 am)26% (Apr 17, 1:53 pm)29.76 "Hg (Apr 20, 7:08 pm)
Average55 °F68%30.07 "Hg
* Reported Apr 8 7:53 am — Apr 23 7:53 am, Ann Arbor, Weather by CustomWeather, © 2017

Note: Actual official high and low records may vary slightly from our data, if they occured in-between our weather recording intervals... More about our weather records

Advertising

Ann Arbor Weather History for the Previous 24 Hours

Scroll right to see more
 ConditionsComfort  
Time TempWeatherWind HumidityBarometerVisibility
7:53 am
Sun, Apr 23
37 °FSunny.No wind100%30.16 "Hg10 mi
7:26 am32 °FSunny.No wind100%30.14 "Hg9 mi
7:08 am32 °FIce fog.No wind100%30.13 "Hg1 mi
6:19 am32 °FIce fog.No wind100%30.12 "Hg6 mi
5:55 am33 °FFog.No wind96%30.11 "Hg2 mi
5:44 am30 °FIce fog.No wind100%30.11 "Hg2 mi
4:53 am31 °FClear.No wind100%30.12 "Hg9 mi
3:53 am34 °FClear.No wind100%30.11 "Hg10 mi
2:53 am36 °FClear.No wind97%30.12 "Hg10 mi
1:53 am35 °FClear.No wind96%30.15 "Hg10 mi
12:53 am37 °FClear.No wind96%30.16 "Hg10 mi
11:53 pm
Sat, Apr 22
41 °FClear.No wind86%30.16 "Hg10 mi
10:53 pm43 °FClear.No wind76%30.15 "Hg10 mi
9:53 pm45 °FClear.6 mph76%30.14 "Hg10 mi
8:53 pm50 °FClear.No wind57%30.12 "Hg10 mi
7:53 pm57 °FSunny.3 mph36%30.11 "Hg10 mi
6:53 pm59 °FSunny.7 mph35%30.11 "Hg10 mi
5:53 pm61 °FSunny.8 mph34%30.10 "Hg10 mi
4:53 pm60 °FSunny.14 mph33%30.11 "Hg10 mi
3:53 pm60 °FSunny.13 mph35%30.12 "Hg10 mi
2:53 pm59 °FSunny.12 mph36%30.14 "Hg10 mi
1:53 pm57 °FSunny.12 mph41%30.14 "Hg10 mi
12:53 pm55 °FSunny.12 mph44%30.15 "Hg10 mi
11:53 am54 °FSunny.17 mph51%30.16 "Hg10 mi
10:53 am50 °FSunny.9 mph61%30.16 "Hg10 mi
9:53 am46 °FSunny.8 mph68%30.14 "Hg10 mi
Weather by CustomWeather, © 2017

See weather overviewHow to use our weather pages